Time,TemperatureF,DewpointF,PressureIn,WindDirection,WindDirectionDegrees,WindSpeedMPH,WindSpeedGustMPH,Humidity,HourlyPrecipIn,Conditions,Clouds,dailyrainin,SoftwareType,DateUTC
2013-02-26 00:01:00,52.0,36.0,29.66,WNW,284,7.0,18.0,54,0.00,,,0.02,,2013-02-26 06:01:00,
2013-02-26 00:11:00,52.0,36.0,29.66,WNW,284,7.0,18.0,54,0.00,,,0.02,,2013-02-26 06:11:00,
2013-02-26 00:21:00,51.0,35.0,29.66,WSW,254,4.0,20.0,55,0.00,,,0.02,,2013-02-26 06:21:00,
2013-02-26 00:32:00,51.0,36.0,29.66,West,269,7.0,16.0,56,0.00,,,0.02,,2013-02-26 06:32:00,
2013-02-26 00:41:00,51.0,36.0,29.66,West,269,7.0,16.0,56,0.00,,,0.02,,2013-02-26 06:41:00,
2013-02-26 00:52:00,51.0,36.0,29.67,WSW,254,6.0,18.0,57,0.00,,,0.02,,2013-02-26 06:52:00,
2013-02-26 01:01:00,50.0,36.0,29.67,West,281,8.0,19.0,58,0.00,,,0.02,,2013-02-26 07:01:00,
2013-02-26 01:11:00,50.0,36.0,29.67,West,281,8.0,19.0,58,0.00,,,0.02,,2013-02-26 07:11:00,
2013-02-26 01:22:00,50.0,36.0,29.67,West,279,8.0,15.0,59,0.00,,,0.02,,2013-02-26 07:22:00,
2013-02-26 01:31:00,50.0,37.0,29.68,West,277,5.0,14.0,60,0.00,,,0.02,,2013-02-26 07:31:00,
2013-02-26 01:41:00,50.0,37.0,29.68,West,277,5.0,14.0,60,0.00,,,0.02,,2013-02-26 07:41:00,
2013-02-26 01:52:00,50.0,37.0,29.68,West,274,5.0,11.0,61,0.00,,,0.02,,2013-02-26 07:52:00,
2013-02-26 02:02:00,50.0,38.0,29.68,WNW,284,5.0,12.0,62,0.00,,,0.02,,2013-02-26 08:02:00,
2013-02-26 02:11:00,50.0,38.0,29.68,WNW,284,5.0,12.0,62,0.00,,,0.02,,2013-02-26 08:11:00,
2013-02-26 02:21:00,50.0,38.0,29.68,West,274,6.0,11.0,62,0.00,,,0.02,,2013-02-26 08:21:00,
2013-02-26 02:31:00,50.0,37.0,29.68,NW,307,8.0,20.0,61,0.00,,,0.02,,2013-02-26 08:31:00,
2013-02-26 02:42:00,50.0,37.0,29.68,NW,307,8.0,20.0,61,0.00,,,0.02,,2013-02-26 08:42:00,
2013-02-26 02:52:00,50.0,37.0,29.68,West,275,10.0,25.0,60,0.00,,,0.02,,2013-02-26 08:52:00,
2013-02-26 03:01:00,49.0,36.0,29.69,WNW,283,8.0,18.0,61,0.00,,,0.02,,2013-02-26 09:01:00,
2013-02-26 03:11:00,49.0,36.0,29.69,WNW,283,8.0,18.0,61,0.00,,,0.02,,2013-02-26 09:11:00,
2013-02-26 03:21:00,49.0,37.0,29.69,West,274,8.0,17.0,62,0.00,,,0.02,,2013-02-26 09:21:00,
2013-02-26 03:31:00,49.0,37.0,29.69,West,279,5.0,14.0,62,0.00,,,0.02,,2013-02-26 09:31:00,
2013-02-26 03:43:00,49.0,37.0,29.69,West,279,5.0,14.0,62,0.00,,,0.02,,2013-02-26 09:43:00,
2013-02-26 03:52:00,48.0,36.0,29.70,WNW,288,7.0,21.0,62,0.00,,,0.02,,2013-02-26 09:52:00,
2013-02-26 04:01:00,48.0,36.0,29.70,WNW,284,4.0,10.0,64,0.00,,,0.02,,2013-02-26 10:01:00,
2013-02-26 04:11:00,48.0,36.0,29.70,WNW,284,4.0,10.0,64,0.00,,,0.02,,2013-02-26 10:11:00,
2013-02-26 04:21:00,48.0,36.0,29.70,West,259,4.0,16.0,64,0.00,,,0.02,,2013-02-26 10:21:00,
2013-02-26 04:31:00,47.0,36.0,29.70,West,277,5.0,10.0,65,0.00,,,0.02,,2013-02-26 10:31:00,
2013-02-26 04:41:00,47.0,36.0,29.70,West,277,5.0,10.0,65,0.00,,,0.02,,2013-02-26 10:41:00,
2013-02-26 04:52:00,47.0,36.0,29.70,WSW,242,2.0,11.0,66,0.00,,,0.02,,2013-02-26 10:52:00,
2013-02-26 05:01:00,47.0,37.0,29.71,West,269,5.0,12.0,67,0.00,,,0.02,,2013-02-26 11:01:00,
2013-02-26 05:12:00,47.0,37.0,29.71,West,269,5.0,12.0,67,0.00,,,0.02,,2013-02-26 11:12:00,
2013-02-26 05:21:00,47.0,37.0,29.71,West,269,2.0,7.0,68,0.00,,,0.02,,2013-02-26 11:21:00,
2013-02-26 05:32:00,47.0,37.0,29.72,West,266,4.0,9.0,68,0.00,,,0.02,,2013-02-26 11:32:00,
2013-02-26 05:42:00,47.0,37.0,29.72,West,266,4.0,9.0,68,0.00,,,0.02,,2013-02-26 11:42:00,
2013-02-26 05:52:00,46.0,36.0,29.72,West,264,1.0,7.0,69,0.00,,,0.02,,2013-02-26 11:52:00,
2013-02-26 06:01:00,46.0,37.0,29.73,West,269,2.0,8.0,70,0.00,,,0.02,,2013-02-26 12:01:00,
2013-02-26 06:11:00,46.0,37.0,29.73,West,269,2.0,8.0,70,0.00,,,0.02,,2013-02-26 12:11:00,
2013-02-26 06:22:00,46.0,37.0,29.73,West,267,2.0,9.0,70,0.00,,,0.02,,2013-02-26 12:22:00,
2013-02-26 06:32:00,46.0,37.0,29.74,West,260,3.0,7.0,70,0.00,,,0.02,,2013-02-26 12:32:00,
2013-02-26 06:42:00,46.0,37.0,29.74,West,260,3.0,7.0,70,0.00,,,0.02,,2013-02-26 12:42:00,
2013-02-26 06:53:00,46.0,37.0,29.75,West,259,4.0,9.0,71,0.00,,,0.02,,2013-02-26 12:53:00,
2013-02-26 07:01:00,46.0,37.0,29.75,West,263,4.0,12.0,71,0.00,,,0.02,,2013-02-26 13:01:00,
2013-02-26 07:11:00,46.0,37.0,29.75,West,263,4.0,12.0,71,0.00,,,0.02,,2013-02-26 13:11:00,
2013-02-26 07:21:00,46.0,37.0,29.76,West,271,4.0,11.0,71,0.00,,,0.02,,2013-02-26 13:21:00,
2013-02-26 07:32:00,46.0,37.0,29.76,West,265,4.0,9.0,71,0.00,,,0.02,,2013-02-26 13:32:00,
2013-02-26 07:42:00,46.0,37.0,29.76,West,265,4.0,9.0,71,0.00,,,0.02,,2013-02-26 13:42:00,
2013-02-26 07:52:00,47.0,38.0,29.77,WNW,294,6.0,12.0,70,0.00,,,0.02,,2013-02-26 13:52:00,
2013-02-26 08:01:00,48.0,38.0,29.78,WNW,302,7.0,14.0,69,0.00,,,0.02,,2013-02-26 14:01:00,
2013-02-26 08:11:00,48.0,38.0,29.78,WNW,302,7.0,14.0,69,0.00,,,0.02,,2013-02-26 14:11:00,
2013-02-26 08:21:00,49.0,39.0,29.79,WNW,286,7.0,17.0,69,0.00,,,0.02,,2013-02-26 14:21:00,
2013-02-26 08:32:00,50.0,39.0,29.80,WNW,298,6.0,17.0,66,0.00,,,0.02,,2013-02-26 14:32:00,
2013-02-26 08:42:00,50.0,39.0,29.80,WNW,298,6.0,17.0,66,0.00,,,0.02,,2013-02-26 14:42:00,
2013-02-26 08:52:00,50.0,39.0,29.79,WNW,303,6.0,18.0,65,0.00,,,0.02,,2013-02-26 14:52:00,
2013-02-26 09:02:00,51.0,40.0,29.81,WNW,297,6.0,20.0,65,0.00,,,0.02,,2013-02-26 15:02:00,
2013-02-26 09:11:00,51.0,40.0,29.81,WNW,297,6.0,20.0,65,0.00,,,0.02,,2013-02-26 15:11:00,
2013-02-26 09:21:00,52.0,39.0,29.82,West,275,7.0,14.0,62,0.00,,,0.02,,2013-02-26 15:21:00,
2013-02-26 09:32:00,52.0,39.0,29.81,NW,304,6.0,16.0,61,0.00,,,0.02,,2013-02-26 15:32:00,
2013-02-26 09:42:00,52.0,39.0,29.81,NW,304,6.0,16.0,61,0.00,,,0.02,,2013-02-26 15:42:00,
2013-02-26 09:52:00,53.0,39.0,29.82,WNW,282,8.0,15.0,60,0.00,,,0.02,,2013-02-26 15:52:00,
2013-02-26 10:01:00,54.0,40.0,29.82,NW,317,8.0,15.0,58,0.00,,,0.02,,2013-02-26 16:01:00,
2013-02-26 10:11:00,54.0,40.0,29.82,NW,317,8.0,15.0,58,0.00,,,0.02,,2013-02-26 16:11:00,
2013-02-26 10:22:00,54.0,39.0,29.83,WNW,283,8.0,16.0,57,0.00,,,0.02,,2013-02-26 16:22:00,
2013-02-26 10:32:00,55.0,40.0,29.83,WNW,288,4.0,16.0,56,0.00,,,0.02,,2013-02-26 16:32:00,
2013-02-26 10:42:00,55.0,40.0,29.83,WNW,288,4.0,16.0,56,0.00,,,0.02,,2013-02-26 16:42:00,
2013-02-26 10:52:00,56.0,41.0,29.83,NW,305,3.0,15.0,57,0.00,,,0.02,,2013-02-26 16:52:00,
2013-02-26 11:01:00,57.0,41.0,29.83,NW,311,6.0,13.0,55,0.00,,,0.02,,2013-02-26 17:01:00,
2013-02-26 11:11:00,57.0,41.0,29.83,NW,311,6.0,13.0,55,0.00,,,0.02,,2013-02-26 17:11:00,
2013-02-26 11:21:00,57.0,42.0,29.83,West,265,5.0,12.0,57,0.00,,,0.02,,2013-02-26 17:21:00,
2013-02-26 11:32:00,58.0,41.0,29.83,NW,313,5.0,15.0,53,0.00,,,0.02,,2013-02-26 17:32:00,
2013-02-26 11:41:00,58.0,41.0,29.83,NW,313,5.0,15.0,53,0.00,,,0.02,,2013-02-26 17:41:00,
2013-02-26 11:52:00,58.0,40.0,29.83,West,275,9.0,16.0,51,0.00,,,0.02,,2013-02-26 17:52:00,
2013-02-26 12:01:00,59.0,42.0,29.82,WSW,252,5.0,14.0,53,0.00,,,0.02,,2013-02-26 18:01:00,
2013-02-26 12:12:00,59.0,42.0,29.82,WSW,252,5.0,14.0,53,0.00,,,0.02,,2013-02-26 18:12:00,
2013-02-26 12:21:00,60.0,42.0,29.83,WSW,251,6.0,14.0,52,0.00,,,0.02,,2013-02-26 18:21:00,
2013-02-26 12:32:00,60.0,42.0,29.83,WNW,284,4.0,14.0,52,0.00,,,0.02,,2013-02-26 18:32:00,
2013-02-26 12:42:00,60.0,42.0,29.83,WNW,284,4.0,14.0,52,0.00,,,0.02,,2013-02-26 18:42:00,
2013-02-26 12:52:00,61.0,41.0,29.82,NW,323,7.0,14.0,48,0.00,,,0.02,,2013-02-26 18:52:00,
2013-02-26 13:01:00,62.0,41.0,29.81,West,268,5.0,12.0,46,0.00,,,0.02,,2013-02-26 19:01:00,
2013-02-26 13:11:00,62.0,41.0,29.81,West,268,5.0,12.0,46,0.00,,,0.02,,2013-02-26 19:11:00,
2013-02-26 13:22:00,62.0,43.0,29.80,WNW,298,5.0,17.0,49,0.00,,,0.01,,2013-02-26 19:22:00,
2013-02-26 13:32:00,63.0,43.0,29.80,WNW,292,5.0,15.0,48,0.00,,,0.01,,2013-02-26 19:32:00,
2013-02-26 13:41:00,63.0,43.0,29.80,WNW,292,5.0,15.0,48,0.00,,,0.01,,2013-02-26 19:41:00,
2013-02-26 13:52:00,63.0,44.0,29.79,West,273,5.0,13.0,49,0.00,,,0.01,,2013-02-26 19:52:00,
2013-02-26 14:01:00,64.0,42.0,29.79,West,281,8.0,18.0,45,0.00,,,0.01,,2013-02-26 20:01:00,
2013-02-26 14:11:00,64.0,42.0,29.79,West,281,8.0,18.0,45,0.00,,,0.01,,2013-02-26 20:11:00,
2013-02-26 14:21:00,65.0,43.0,29.78,NW,306,3.0,14.0,45,0.00,,,0.00,,2013-02-26 20:21:00,
2013-02-26 14:32:00,65.0,42.0,29.78,WNW,284,8.0,13.0,43,0.00,,,0.00,,2013-02-26 20:32:00,
2013-02-26 14:41:00,65.0,42.0,29.78,WNW,284,8.0,13.0,43,0.00,,,0.00,,2013-02-26 20:41:00,
2013-02-26 14:52:00,66.0,43.0,29.78,NNW,346,3.0,13.0,44,0.00,,,0.00,,2013-02-26 20:52:00,
2013-02-26 15:01:00,66.0,43.0,29.78,West,271,7.0,13.0,44,0.00,,,0.00,,2013-02-26 21:01:00,
2013-02-26 15:21:00,66.0,42.0,29.78,NW,319,6.0,13.0,42,0.00,,,0.00,,2013-02-26 21:21:00,
2013-02-26 15:31:00,66.0,42.0,29.78,NNW,335,5.0,12.0,42,0.00,,,0.00,,2013-02-26 21:31:00,
2013-02-26 15:41:00,66.0,42.0,29.78,NNW,335,5.0,12.0,42,0.00,,,0.00,,2013-02-26 21:41:00,
2013-02-26 15:51:00,66.0,42.0,29.79,WNW,289,6.0,12.0,42,0.00,,,0.00,,2013-02-26 21:51:00,
2013-02-26 16:01:00,66.0,41.0,29.79,NW,309,7.0,14.0,40,0.00,,,0.00,,2013-02-26 22:01:00,
2013-02-26 16:11:00,65.0,41.0,29.80,WNW,292,2.0,10.0,42,0.00,,,0.00,,2013-02-26 22:11:00,
2013-02-26 16:21:00,65.0,41.0,29.80,WNW,292,2.0,10.0,42,0.00,,,0.00,,2013-02-26 22:21:00,
2013-02-26 16:31:00,65.0,43.0,29.81,WNW,288,3.0,7.0,44,0.00,,,0.00,,2013-02-26 22:31:00,
2013-02-26 16:41:00,65.0,43.0,29.81,WNW,288,3.0,7.0,44,0.00,,,0.00,,2013-02-26 22:41:00,
2013-02-26 16:52:00,65.0,41.0,29.81,WNW,284,3.0,9.0,42,0.00,,,0.00,,2013-02-26 22:52:00,
2013-02-26 17:01:00,65.0,43.0,29.81,WNW,286,4.0,11.0,44,0.00,,,0.00,,2013-02-26 23:01:00,
2013-02-26 17:11:00,65.0,43.0,29.81,WNW,286,4.0,11.0,44,0.00,,,0.00,,2013-02-26 23:11:00,
2013-02-26 17:21:00,64.0,40.0,29.81,WNW,288,3.0,8.0,42,0.00,,,0.00,,2013-02-26 23:21:00,
2013-02-26 17:31:00,64.0,42.0,29.82,NW,319,1.0,7.0,45,0.00,,,0.00,,2013-02-26 23:31:00,
2013-02-26 17:41:00,64.0,42.0,29.82,NW,319,1.0,7.0,45,0.00,,,0.00,,2013-02-26 23:41:00,
2013-02-26 17:52:00,64.0,42.0,29.83,NW,323,1.0,8.0,45,0.00,,,0.00,,2013-02-26 23:52:00,
2013-02-26 18:01:00,62.0,42.0,29.83,NW,323,0.0,4.0,48,0.00,,,0.00,,2013-02-27 00:01:00,
2013-02-26 18:11:00,62.0,42.0,29.83,NW,323,0.0,4.0,48,0.00,,,0.00,,2013-02-27 00:11:00,
2013-02-26 18:22:00,60.0,43.0,29.84,NW,323,0.0,0.0,54,0.00,,,0.00,,2013-02-27 00:22:00,
2013-02-26 18:31:00,59.0,46.0,29.85,NW,323,0.0,0.0,63,0.00,,,0.00,,2013-02-27 00:31:00,
2013-02-26 18:52:00,57.0,47.0,29.85,NW,323,0.0,0.0,69,0.00,,,0.00,,2013-02-27 00:52:00,
2013-02-26 19:01:00,55.0,47.0,29.85,NW,323,0.0,0.0,74,0.00,,,0.00,,2013-02-27 01:01:00,
2013-02-26 19:21:00,53.0,46.0,29.85,NW,323,0.0,0.0,78,0.00,,,0.00,,2013-02-27 01:21:00,
2013-02-26 19:32:00,52.0,46.0,29.87,NW,323,0.0,0.0,81,0.00,,,0.00,,2013-02-27 01:32:00,
2013-02-26 19:52:00,51.0,46.0,29.87,NW,323,0.0,0.0,84,0.00,,,0.00,,2013-02-27 01:52:00,
2013-02-26 20:01:00,50.0,46.0,29.88,NW,323,0.0,0.0,85,0.00,,,0.00,,2013-02-27 02:01:00,
2013-02-26 20:14:00,50.0,46.0,29.88,NW,323,0.0,0.0,85,0.00,,,0.00,,2013-02-27 02:14:00,
2013-02-26 20:23:00,50.0,46.0,29.88,NW,323,0.0,0.0,86,0.00,,,0.00,,2013-02-27 02:23:00,
2013-02-26 20:32:00,49.0,45.0,29.88,NW,323,0.0,0.0,87,0.00,,,0.00,,2013-02-27 02:32:00,
2013-02-26 20:42:00,49.0,45.0,29.88,NW,323,0.0,0.0,87,0.00,,,0.00,,2013-02-27 02:42:00,
2013-02-26 20:52:00,49.0,46.0,29.88,NW,323,0.0,0.0,88,0.00,,,0.00,,2013-02-27 02:52:00,
2013-02-26 21:01:00,48.0,45.0,29.89,NW,323,0.0,0.0,88,0.00,,,0.00,,2013-02-27 03:01:00,
2013-02-26 21:11:00,48.0,45.0,29.89,NW,323,0.0,0.0,88,0.00,,,0.00,,2013-02-27 03:11:00,
2013-02-26 21:22:00,48.0,45.0,29.90,NW,323,0.0,0.0,88,0.00,,,0.00,,2013-02-27 03:22:00,
2013-02-26 21:32:00,47.0,44.0,29.90,NW,323,0.0,0.0,88,0.00,,,0.00,,2013-02-27 03:32:00,
2013-02-26 21:42:00,47.0,44.0,29.90,NW,323,0.0,0.0,88,0.00,,,0.00,,2013-02-27 03:42:00,
2013-02-26 21:52:00,47.0,44.0,29.91,NW,323,0.0,0.0,89,0.00,,,0.00,,2013-02-27 03:52:00,
2013-02-26 22:01:00,47.0,44.0,29.91,NW,323,0.0,0.0,89,0.00,,,0.00,,2013-02-27 04:01:00,
2013-02-26 22:11:00,47.0,44.0,29.91,NW,323,0.0,0.0,89,0.00,,,0.00,,2013-02-27 04:11:00,
2013-02-26 22:21:00,46.0,43.0,29.92,NW,323,0.0,0.0,89,0.00,,,0.00,,2013-02-27 04:21:00,
2013-02-26 22:32:00,46.0,43.0,29.92,NW,323,0.0,0.0,88,0.00,,,0.00,,2013-02-27 04:32:00,
2013-02-26 22:41:00,46.0,43.0,29.92,NW,323,0.0,0.0,88,0.00,,,0.00,,2013-02-27 04:41:00,
2013-02-26 22:52:00,46.0,43.0,29.92,NW,323,0.0,0.0,88,0.00,,,0.00,,2013-02-27 04:52:00,
2013-02-26 23:01:00,46.0,43.0,29.93,NW,323,0.0,0.0,88,0.00,,,0.00,,2013-02-27 05:01:00,
2013-02-26 23:11:00,46.0,43.0,29.93,NW,323,0.0,0.0,88,0.00,,,0.00,,2013-02-27 05:11:00,
2013-02-26 23:22:00,46.0,43.0,29.92,NW,323,0.0,0.0,88,0.00,,,0.00,,2013-02-27 05:22:00,
2013-02-26 23:32:00,46.0,44.0,29.92,NW,323,0.0,0.0,92,0.00,,,0.00,,2013-02-27 05:32:00,
2013-02-26 23:42:00,46.0,44.0,29.92,NW,323,0.0,0.0,92,0.00,,,0.00,,2013-02-27 05:42:00,
2013-02-26 23:52:00,46.0,43.0,29.93,NW,323,0.0,0.0,88,0.00,,,0.00,,2013-02-27 05:52:00,